TimeEST,TemperatureF,Dew PointF,Humidity,Sea Level PressureIn,VisibilityMPH,Wind Direction,Wind SpeedMPH,Gust SpeedMPH,PrecipitationIn,Events,Conditions,WindDirDegrees,DateUTC
12:17 AM,35.6,30.2,81,30.17,10.0,SSW,4.6,-,N/A,,Clear,210,2012-12-14 05:17:00
12:37 AM,35.6,28.4,75,30.17,10.0,SW,4.6,-,N/A,,Clear,220,2012-12-14 05:37:00
12:57 AM,35.6,28.4,75,30.17,10.0,SW,3.5,-,N/A,,Clear,220,2012-12-14 05:57:00
1:17 AM,35.6,26.6,70,30.16,10.0,SSW,5.8,-,N/A,,Clear,210,2012-12-14 06:17:00
1:37 AM,35.6,26.6,70,30.16,10.0,SW,6.9,-,N/A,,Clear,220,2012-12-14 06:37:00
1:57 AM,37.4,26.6,65,30.16,10.0,SW,5.8,-,N/A,,Clear,220,2012-12-14 06:57:00
2:17 AM,35.6,26.6,70,30.17,10.0,SW,4.6,-,N/A,,Clear,220,2012-12-14 07:17:00
2:37 AM,35.6,26.6,70,30.17,10.0,SSW,4.6,-,N/A,,Clear,210,2012-12-14 07:37:00
2:57 AM,35.6,26.6,70,30.17,10.0,SW,3.5,-,N/A,,Clear,220,2012-12-14 07:57:00
3:17 AM,35.6,26.6,70,30.17,10.0,SW,3.5,-,N/A,,Clear,220,2012-12-14 08:17:00
3:37 AM,35.6,26.6,70,30.17,10.0,SSW,4.6,-,N/A,,Clear,210,2012-12-14 08:37:00
3:57 AM,35.6,26.6,70,30.17,10.0,SW,4.6,-,N/A,,Clear,220,2012-12-14 08:57:00
4:17 AM,35.6,26.6,70,30.17,10.0,SW,3.5,-,N/A,,Clear,220,2012-12-14 09:17:00
4:37 AM,33.8,26.6,75,30.17,10.0,SW,3.5,-,N/A,,Clear,220,2012-12-14 09:37:00
4:57 AM,35.6,26.6,70,30.17,10.0,SW,3.5,-,N/A,,Clear,220,2012-12-14 09:57:00
5:17 AM,35.6,26.6,70,30.17,10.0,SW,4.6,-,N/A,,Clear,230,2012-12-14 10:17:00
5:37 AM,35.6,26.6,70,30.18,10.0,SW,3.5,-,N/A,,Clear,220,2012-12-14 10:37:00
5:57 AM,35.6,26.6,70,30.18,10.0,SW,3.5,-,N/A,,Clear,220,2012-12-14 10:57:00
6:17 AM,33.8,26.6,75,30.19,10.0,SW,3.5,-,N/A,,Clear,220,2012-12-14 11:17:00
6:37 AM,33.8,26.6,75,30.19,10.0,WSW,3.5,-,N/A,,Clear,240,2012-12-14 11:37:00
6:57 AM,33.8,26.6,75,30.19,10.0,Calm,Calm,-,N/A,,Clear,0,2012-12-14 11:57:00
7:17 AM,33.8,26.6,75,30.19,10.0,WSW,3.5,-,N/A,,Clear,240,2012-12-14 12:17:00
7:37 AM,32.0,26.6,80,30.19,10.0,WSW,3.5,-,N/A,,Clear,240,2012-12-14 12:37:00
7:57 AM,32.0,26.6,80,30.21,10.0,WSW,3.5,-,N/A,,Clear,250,2012-12-14 12:57:00
8:17 AM,32.0,26.6,80,30.20,10.0,Calm,Calm,-,N/A,,Clear,0,2012-12-14 13:17:00
8:37 AM,32.0,26.6,80,30.20,10.0,Calm,Calm,-,N/A,,Clear,0,2012-12-14 13:37:00
8:57 AM,32.0,26.6,80,30.20,10.0,Calm,Calm,-,N/A,,Clear,0,2012-12-14 13:57:00
9:17 AM,33.8,28.4,81,30.21,10.0,Calm,Calm,-,N/A,,Clear,0,2012-12-14 14:17:00
9:37 AM,35.6,28.4,75,30.22,10.0,Calm,Calm,-,N/A,,Clear,0,2012-12-14 14:37:00
9:57 AM,37.4,28.4,70,30.22,10.0,WNW,5.8,-,N/A,,Clear,290,2012-12-14 14:57:00
10:17 AM,39.2,30.2,70,30.22,10.0,WNW,4.6,-,N/A,,Clear,300,2012-12-14 15:17:00
10:37 AM,41.0,30.2,65,30.23,10.0,WNW,5.8,-,N/A,,Clear,300,2012-12-14 15:37:00
10:57 AM,41.0,30.2,65,30.23,10.0,Calm,Calm,-,N/A,,Clear,0,2012-12-14 15:57:00
11:17 AM,42.8,32.0,66,30.23,10.0,WNW,4.6,-,N/A,,Clear,300,2012-12-14 16:17:00
11:37 AM,42.8,32.0,66,30.24,10.0,WNW,3.5,-,N/A,,Clear,290,2012-12-14 16:37:00
11:57 AM,44.6,32.0,61,30.23,10.0,Calm,Calm,-,N/A,,Clear,0,2012-12-14 16:57:00
12:17 PM,44.6,32.0,61,30.23,10.0,NW,3.5,-,N/A,,Clear,310,2012-12-14 17:17:00
12:37 PM,44.6,30.2,57,30.22,10.0,Calm,Calm,-,N/A,,Clear,0,2012-12-14 17:37:00
12:57 PM,44.6,28.4,53,30.22,10.0,Calm,Calm,-,N/A,,Clear,0,2012-12-14 17:57:00
1:17 PM,44.6,30.2,57,30.22,10.0,Calm,Calm,-,N/A,,Clear,0,2012-12-14 18:17:00
1:37 PM,46.4,30.2,53,30.21,10.0,Calm,Calm,-,N/A,,Clear,0,2012-12-14 18:37:00
1:57 PM,46.4,30.2,53,30.21,10.0,WNW,4.6,-,N/A,,Clear,300,2012-12-14 18:57:00
2:17 PM,46.4,30.2,53,30.21,10.0,West,3.5,-,N/A,,Clear,280,2012-12-14 19:17:00
2:37 PM,46.4,28.4,50,30.20,10.0,Calm,Calm,-,N/A,,Clear,0,2012-12-14 19:37:00
2:57 PM,46.4,28.4,50,30.20,10.0,Calm,Calm,-,N/A,,Clear,0,2012-12-14 19:57:00
3:17 PM,46.4,28.4,50,30.19,10.0,Calm,Calm,-,N/A,,Clear,0,2012-12-14 20:17:00
3:37 PM,46.4,28.4,50,30.19,10.0,Calm,Calm,-,N/A,,Clear,0,2012-12-14 20:37:00
3:57 PM,44.6,32.0,61,30.20,10.0,NE,5.8,-,N/A,,Clear,40,2012-12-14 20:57:00
4:17 PM,42.8,32.0,66,30.20,10.0,NE,6.9,-,N/A,,Clear,40,2012-12-14 21:17:00
4:37 PM,41.0,32.0,70,30.21,10.0,NNE,4.6,-,N/A,,Clear,30,2012-12-14 21:37:00
4:57 PM,39.2,32.0,75,30.22,10.0,NNE,4.6,-,N/A,,Clear,30,2012-12-14 21:57:00
5:17 PM,37.4,32.0,81,30.22,10.0,NE,5.8,-,N/A,,Clear,40,2012-12-14 22:17:00
5:37 PM,35.6,32.0,87,30.22,10.0,NE,5.8,-,N/A,,Clear,50,2012-12-14 22:37:00
5:57 PM,35.6,32.0,87,30.22,7.0,ENE,4.6,-,N/A,,Clear,60,2012-12-14 22:57:00
6:17 PM,33.8,32.0,93,30.22,7.0,East,4.6,-,N/A,,Clear,80,2012-12-14 23:17:00
6:37 PM,33.8,32.0,93,30.22,5.0,NE,4.6,-,N/A,,Clear,50,2012-12-14 23:37:00
6:57 PM,32.0,30.2,93,30.22,5.0,Calm,Calm,-,N/A,,Clear,0,2012-12-14 23:57:00
7:17 PM,33.8,32.0,93,30.23,5.0,Calm,Calm,-,N/A,,Clear,0,2012-12-15 00:17:00
7:37 PM,30.2,30.2,100,30.23,3.0,Calm,Calm,-,N/A,,Clear,0,2012-12-15 00:37:00
7:57 PM,30.2,28.4,93,30.24,4.0,Calm,Calm,-,N/A,,Clear,0,2012-12-15 00:57:00
8:17 PM,32.0,30.2,93,30.24,2.5,Calm,Calm,-,N/A,,Clear,0,2012-12-15 01:17:00
8:37 PM,28.4,28.4,100,30.24,3.0,Calm,Calm,-,N/A,,Clear,0,2012-12-15 01:37:00
8:57 PM,28.4,26.6,93,30.24,4.0,Calm,Calm,-,N/A,,Clear,0,2012-12-15 01:57:00
9:17 PM,30.2,28.4,93,30.23,2.5,Calm,Calm,-,N/A,,Clear,0,2012-12-15 02:17:00
9:37 PM,28.4,28.4,100,30.23,4.0,Calm,Calm,-,N/A,,Clear,0,2012-12-15 02:37:00
9:57 PM,28.4,28.4,100,30.23,4.0,Calm,Calm,-,N/A,,Clear,0,2012-12-15 02:57:00
10:17 PM,28.4,28.4,100,30.23,4.0,Calm,Calm,-,N/A,,Clear,0,2012-12-15 03:17:00
10:37 PM,28.4,28.4,100,30.22,2.5,Calm,Calm,-,N/A,,Clear,0,2012-12-15 03:37:00
10:57 PM,28.4,26.6,93,30.22,4.0,Calm,Calm,-,N/A,,Clear,0,2012-12-15 03:57:00
11:17 PM,28.4,26.6,93,30.21,3.0,NE,3.5,-,N/A,,Clear,40,2012-12-15 04:17:00
11:37 PM,28.4,26.6,93,30.20,3.0,Calm,Calm,-,N/A,,Clear,0,2012-12-15 04:37:00
11:57 PM,28.4,26.6,93,30.20,4.0,Calm,Calm,-,N/A,,Clear,0,2012-12-15 04:57:00